Location: Taupo
(38.6830°S, 176.0830°E)
Time: 19:44:29
(UTC+13:00)

ARGOS - Pass Details

Date: 24 January 2019
Orbit: 821 x 834 km, 98.5° (Epoch: 16 February)

Event Time Altitude Azimuth Distance (km) Brightness Sun altitude
Rises 23:12:02 0° 175° (S) 3,391 7.1 -23.9°
Reaches altitude 10° 23:14:30 10° 181° (S) 2,450 6.3 -24.2°
Maximum altitude 23:19:35 43° 250° (WSW) 1,150 4.2 -24.8°
Enters shadow 23:23:31 16° 315° (NW) 2,020 5.0 -25.2°
